Regional Weather Roundup
Issued by NWS

Home | Current Version | Previous Version | Graphics & Text | Print | Product List | Glossary On
Versions: 1 2 3 4 5 6 7 8 9 10 11 12 13 14 15 16 17 18 19 20 21 22 23 24 25 26 27 28 29 30 31 32 33 34 35 36 37 38 39 40 41 42 43 44 45 46 47 48 49 50
905
ASUS45 KBOU 220510
RWRCO

WEATHER ROUNDUP FOR COLORADO
NATIONAL WEATHER SERVICE DENVER/BOULDER CO
1000 PM MST SUN JAN 21 2018

NOTE: "FAIR" INDICATES FEW OR NO CLOUDS BELOW 12000 FEET WITH NO
SIGNIFICANT WEATHER AND/OR OBSTRUCTIONS TO VISIBILITY.

COZ001>005-013-030-031-220600-
...NORTHWEST COLORADO...

CITY           SKY/WX    TMP DP  RH WIND       PRES   REMARKS
CRAIG          MOCLDY    13   7  77 W6        30.14R WCI   4
HAYDEN         CLOUDY   N/A N/A N/A SW6       30.13R
MEEKER         MOCLDY    15  12  88 S5        30.13R WCI   8
RABBIT EARS PA LGT SNOW   5   1  85 W10G17    29.92R VSB 3/4 WCI -10
STEAMBOAT SPGS CLOUDY    13  10  84 CALM      30.08R
WALDEN         FAIR       7   3  85 N8        30.00R WCI  -6
$$

COZ006>008-011-220600-
...WEST CENTRAL VALLEYS...

CITY           SKY/WX    TMP DP  RH WIND       PRES   REMARKS
GRAND JUNCTION MOCLDY    20  13  74 CALM      30.19R
MONTROSE       CLOUDY    19  13  77 E5        30.19R WCI  12
EAGLE          CLOUDY    15  10  80 CALM      30.11R
RIFLE          MOCLDY    25  17  72 W14       30.16R WCI  13
DELTA          FAIR      28  14  54 W12       30.17R WCI  18
NUCLA          FAIR      14   9  79 E8        30.21R WCI   3
$$

COZ017>023-064>068-220600-
...SOUTHWEST COLORADO...

CITY           SKY/WX    TMP DP  RH WIND       PRES   REMARKS
DURANGO        FAIR      20  10  65 W14       30.01R WCI   7
CORTEZ         FAIR      16  10  77 CALM      30.14R
PAGOSA SPRINGS FAIR      15  14  96 CALM      29.99R
TELLURIDE      FAIR      11   7  82 W13G21    30.05R WCI  -4
WOLF CREEK PAS FAIR       1  -4  78 NW10G23   29.90R HAZE    WCI -14
$$

COZ009-010-012-014-032>034-037-058>063-220600-
...CENTRAL COLORADO...

CITY           SKY/WX    TMP DP  RH WIND       PRES   REMARKS
ASPEN          CLOUDY    15  10  80 N5        30.03R WCI   8
BUENA VISTA    FAIR      16   4  59 N15       29.91R WCI   1
COPPER MTN     NOT AVBL
BERTHOUD PASS  HVY SNOW  -4 -15  59 N20G33    29.76R VSB 1/4 WCI -27
COTTONWOOD PAS   N/A     18   3  53 W17G36    29.83R WCI   2
GUNNISON       FAIR      15  10  80 W14       30.01R WCI   0
KREMMLING      FAIR      14  10  85 N5        30.04R WCI   6
LEADVILLE      CLOUDY     6   2  83 NW9       29.89R FOG     WCI  -8
MONARCH PASS   LGT SNOW   0  -4  85 W33       29.89S VSB 3/4 WCI -27
SALIDA         FAIR      20   8  60 NW10G16   29.99R WCI   9
SUNLIGHT       CLOUDY   N/A N/A N/A MISG      30.01R
WILKERSON PASS FAIR       3   0  85 NW13G25   29.78S WCI -14
$$

COZ069>075-220600-
...SAN LUIS VALLEY/SANGRE DE CRISTO MOUNTAINS...

CITY           SKY/WX    TMP DP  RH WIND       PRES   REMARKS
ALAMOSA        FAIR      18   3  52 N15       29.92R WCI   4
DEL NORTE      FAIR      18   1  49 W15       29.92S WCI   3
LA VETA PASS   FAIR       9   5  85 SW17G25     N/A  FOG     WCI -10
SAGUACHE       FAIR      18   7  62 NW20G28   29.93R WCI   1
$$

COZ035-036-038>040-220600-
...NORTHERN COLORADO FRONT RANGE...

CITY           SKY/WX    TMP DP  RH WIND       PRES   REMARKS
DENVER INTL AP CLOUDY    25  15  66 N26G37    29.95R WCI   9
DMNS CITY PARK NOT AVBL
AURORA         CLOUDY    23  15  71 N23G30    29.94S WCI   8
FRONT RANGE AP LGT SNOW  26  20  79 NW21G30   29.94S WCI  12
ERIE MUNI ARPT CLOUDY    29  13  50 NE12      30.01S WCI  19
BOULDER MUN AP CLOUDY    27  21  80 SW5       29.95S WCI  21
CENTENNIAL     CLOUDY    22  14  71 N10       29.93S WCI  11
BROOMFIELD     NOT AVBL
FORT COLLINS   CLOUDY    26  19  74 N14       29.96F WCI  14
LONGMONT       CLOUDY    28  16  60 SW5       29.98S WCI  23
$$

COZ041-046-047-076>085-087-088-220600-
...PIKES PEAK/PALMER DIVIDE AND SOUTHERN FOOTHILLS...

CITY           SKY/WX    TMP DP  RH WIND       PRES   REMARKS
COLO. SPRINGS  MOCLDY    22  14  71 NW14      29.90R WCI   9
A. F. ACADEMY  LGT SNOW  19  13  76 N20G28    29.87S WCI   4
SCHRIEVER AFB  FAIR      20  12  73 N15G23    29.90R WCI   6
CHEYENNE MTN   FAIR      19  10  67 N6        29.82R WCI  11
ELLICOTT         N/A    N/A N/A N/A N18G26      N/A
FALCON         LGT SNOW  18  12  77 NW13G24   29.87R WCI   4
FORT CARSON    PTCLDY    23  12  62 N14G25    29.90R WCI  11
LIMON          LGT SNOW  21  19  92 NW36G48   29.86R VSB 1   WCI   1
MONUMENT HILL  LGT SNOW  16  12  86 NW16G23   29.88S WCI   0
CANON CITY     FAIR      27  14  59 NW13      29.92R WCI  16
WALSENBURG     FAIR      18  14  86 CALM      29.93R
TRINIDAD       CLOUDY    23  18  81 W7        29.93R WCI  15
$$

COZ042>045-048>051-090-091-220600-
...NORTHEAST COLORADO...

CITY           SKY/WX    TMP DP  RH WIND       PRES   REMARKS
GREELEY ARPT   FAIR      26  18  71 NW15      29.97S WCI  14
AKRON          FOG       23  22  96 NW30G40   29.86S VSB 3/4 WCI   5
BURLINGTON     FOG       26  24  92 NW28G45   29.77S VSB 1/2 WCI  10
WRAY           CLOUDY    28  27  93 NW26G36   29.82R WCI  13
YUMA           LGT SNOW  27  23  86 NW24G31   29.84S WCI  12
STERLING       CLOUDY    28  25  86 N32       29.87F FOG     WCI  12
HOLYOKE        CLOUDY    30  27  86 N32G39    29.82S WCI  15
FORT MORGAN    CLOUDY    25  20  80 NW25G31   29.93S WCI   9
$$

COZ086-089-092>099-220600-
...SOUTHEAST COLORADO...

CITY           SKY/WX    TMP DP  RH WIND       PRES   REMARKS
PUEBLO         CLOUDY    29  17  61 N18G25    29.93R WCI  16
LA JUNTA       CLOUDY    29  18  63 NW23G31   29.92R WCI  15
LAMAR          CLOUDY    29  21  72 NW25      29.85R WCI  14
SPRINGFIELD      N/A     24  22  91 NW30G40   29.82R WCI   7
$$




USA.gov is the U.S. government's official web portal to all federal, state and local government web resources and services.